User: anonymous   Login
Location: Caltech
(34.1382°N, 118.1253°W)
Time: 14:29:03
(UTC-07:00)
Language:

SO-50 - Orbit

View from above orbital plane
View from above orbital plane
View from above satellite
View from above satellite

Ground track
Ground track

The orbit data is extracted from the following two-line orbital elements,

1 27607U 02058C   15183.36219646  .00000222  00000-0  52440-4 0  9997
2 27607 064.5541 152.4617 0081969 285.3836 073.8220 14.74768108673524
Epoch (UTC): 02 July 2015 08:41:33
Eccentricity: 0.0081969
inclination: 64.5541°
perigee height: 588 km
apogee height: 703 km
right ascension of ascending node: 152.4617°
argument of perigee: 285.3836°
revolutions per day: 14.74768108
mean anomaly at epoch: 73.8220°
orbit number at epoch: 67352

The dashed part of the orbit path shows where the satellite is in the earth's shadow,  

DLR